EW3204 Weather Reports


time (UTC)temp
F
wind
direction
speed
knots
gust
knots
rain 1hr
in
rain 24hr
in
rain mn
in
humidity
%
barometer
mb
20260509034515 86 226 9.6 0.0 0.00 0.00 0.00 7 1006.0
20260509033014 86 260 11.3 0.0 0.00 0.00 0.00 8 1005.8
20260509031514 87 260 11.3 0.0 0.00 0.00 0.00 8 1005.7
20260509030013 87 264 10.4 0.0 0.00 0.00 0.00 9 1005.6
20260509024512 87 275 12.2 0.0 0.00 0.00 0.00 9 1005.4
20260509023012 88 271 13.9 0.0 0.00 0.00 0.00 9 1005.3
20260509021512 88 279 13.9 0.0 0.00 0.00 0.00 9 1005.1
20260509020011 89 270 13.9 0.0 0.00 0.00 0.00 10 1005.1
20260509014520 90 302 12.2 0.0 0.00 0.00 0.00 11 1005.1
20260509013010 91 275 13.0 0.0 0.00 0.00 0.00 11 1005.1
20260509011511 92 288 13.0 0.0 0.00 0.00 0.00 12 1005.0
20260509010008 93 277 10.4 0.0 0.00 0.00 0.00 11 1005.0
20260509004509 94 277 11.3 0.0 0.00 0.00 0.00 12 1005.0
20260509003008 95 254 9.6 0.0 0.00 0.00 0.00 11 1004.9
20260509001510 95 271 10.4 0.0 0.00 0.00 0.00 10 1005.1
20260509000008 96 283 10.4 0.0 0.00 0.00 0.00 10 1005.1
20260508234506 96 250 13.0 0.0 0.00 0.00 0.00 9 1005.1
20260508233006 97 275 11.3 0.0 0.00 0.00 0.00 8 1005.0
20260508231505 96 277 13.9 0.0 0.00 0.00 0.00 7 1005.1
20260508230004 97 266 10.4 0.0 0.00 0.00 0.00 7 1005.2
20260508224512 98 273 9.6 0.0 0.00 0.00 0.00 7 1005.3
20260508223003 98 278 12.2 0.0 0.00 0.00 0.00 6 1005.3
20260508221504 98 279 11.3 0.0 0.00 0.00 0.00 6 1005.6
20260508220104 98 310 10.4 0.0 0.00 0.00 0.00 6 1005.6
20260508220002 98 298 10.4 0.0 0.00 0.00 0.00 6 1005.7
20260508214559 99 297 9.6 0.0 0.00 0.00 0.00 6 1005.8
20260508213059 99 293 10.4 0.0 0.00 0.00 0.00 7 1005.9
20260508211557 99 328 10.4 0.0 0.00 0.00 0.00 8 1006.0
20260508210055 99 260 11.3 0.0 0.00 0.00 0.00 7 1006.2
20260508204554 98 305 11.3 0.0 0.00 0.00 0.00 7 1006.2
20260508203052 99 293 11.3 0.0 0.00 0.00 0.00 7 1006.2
20260508201550 98 302 9.6 0.0 0.00 0.00 0.00 8 1006.4
20260508200048 98 291 12.2 0.0 0.00 0.00 0.00 8 1006.6
20260508194601 98 259 10.4 0.0 0.00 0.00 0.00 8 1006.9
20260508193051 98 320 10.4 0.0 0.00 0.00 0.00 8 1006.9
20260508191549 97 307 12.2 0.0 0.00 0.00 0.00 8 1007.1
20260508184543 96 287 10.4 0.0 0.00 0.00 0.00 8 1007.6
20260508183043 96 286 10.4 0.0 0.00 0.00 0.00 8 1007.7
20260508181545 96 299 7.8 0.0 0.00 0.00 0.00 9 1007.9
20260508180038 95 263 7.8 0.0 0.00 0.00 0.00 9 1008.1
20260508174538 95 268 8.7 0.0 0.00 0.00 0.00 10 1008.0
20260508173035 95 295 7.8 0.0 0.00 0.00 0.00 10 1008.1
20260508171540 94 278 8.7 0.0 0.00 0.00 0.00 11 1008.1
20260508170033 94 277 9.6 0.0 0.00 0.00 0.00 11 1008.2
20260508164531 93 304 8.7 0.0 0.00 0.00 0.00 11 1008.2
20260508163029 93 285 5.2 0.0 0.00 0.00 0.00 10 1008.3
20260508161543 92 258 6.1 0.0 0.00 0.00 0.00 11 1008.3
20260508160023 91 358 6.1 0.0 0.00 0.00 0.00 12 1008.3
20260508154522 89 48 6.1 0.0 0.00 0.00 0.00 15 1008.4
20260508153032 88 107 5.2 0.0 0.00 0.00 0.00 16 1008.3
20260508151542 87 103 3.5 0.0 0.00 0.00 0.00 16 1008.4
20260508150016 87 78 5.2 0.0 0.00 0.00 0.00 17 1008.4
20260508144513 84 218 4.3 0.0 0.00 0.00 0.00 16 1008.3
20260508143014 83 238 4.3 0.0 0.00 0.00 0.00 20 1008.2
20260508141513 80 66 1.7 0.0 0.00 0.00 0.00 22 1008.2
20260508140010 78 127 2.6 0.0 0.00 0.00 0.00 25 1008.0
20260508134512 77 148 3.5 0.0 0.00 0.00 0.00 26 1007.8
20260508133009 77 127 1.7 0.0 0.00 0.00 0.00 25 1007.8
20260508131510 76 184 2.6 0.0 0.00 0.00 0.00 26 1007.6
20260508130008 76 104 1.7 0.0 0.00 0.00 0.00 25 1007.4
20260508124505 77 106 2.6 0.0 0.00 0.00 0.00 26 1007.3
20260508123008 78 184 2.6 0.0 0.00 0.00 0.00 24 1007.2
20260508121504 77 98 4.3 0.0 0.00 0.00 0.00 25 1007.2
20260508120002 78 121 4.3 0.0 0.00 0.00 0.00 24 1007.2
20260508114502 78 83 3.5 0.0 0.00 0.00 0.00 24 1007.1
20260508113104 79 38 2.6 0.0 0.00 0.00 0.00 23 1007.0
20260508111556 81 90 3.5 0.0 0.00 0.00 0.00 20 1007.0
20260508104550 84 293 5.2 0.0 0.00 0.00 0.00 17 1007.0
20260508103049 85 258 6.1 0.0 0.00 0.00 0.00 16 1007.0
20260508101548 85 277 9.6 0.0 0.00 0.00 0.00 15 1007.0
20260508094547 86 255 10.4 0.0 0.00 0.00 0.00 14 1006.9
20260508093044 85 262 8.7 0.0 0.00 0.00 0.00 14 1007.0
20260508091604 86 288 10.4 0.0 0.00 0.00 0.00 14 1007.0
20260508090047 86 256 11.3 0.0 0.00 0.00 0.00 14 1007.1
20260508084540 86 272 10.4 0.0 0.00 0.00 0.00 14 1007.2
20260508083038 86 256 11.3 0.0 0.00 0.00 0.00 14 1007.3
20260508081553 86 288 11.3 0.0 0.00 0.00 0.00 13 1007.6
20260508080042 86 265 13.0 0.0 0.00 0.00 0.00 13 1007.6
20260508074536 86 280 10.4 0.0 0.00 0.00 0.00 14 1007.8
20260508073038 86 258 11.3 0.0 0.00 0.00 0.00 13 1007.9
20260508071536 86 267 11.3 0.0 0.00 0.00 0.00 14 1008.0
20260508070028 86 255 9.6 0.0 0.00 0.00 0.00 14 1008.0
20260508064531 86 269 11.3 0.0 0.00 0.00 0.00 14 1008.2
20260508063027 86 304 11.3 0.0 0.00 0.00 0.00 14 1008.3
20260508061526 86 286 11.3 0.0 0.00 0.00 0.00 14 1008.2
20260508060029 86 256 12.2 0.0 0.00 0.00 0.00 15 1008.2
20260508054603 86 279 13.9 0.0 0.00 0.00 0.00 14 1008.2
20260508053031 86 263 14.8 0.0 0.00 0.00 0.00 14 1008.3
20260508051524 86 286 13.9 0.0 0.00 0.00 0.00 14 1008.3
20260508050024 86 277 14.8 0.0 0.00 0.00 0.00 14 1008.3
20260508044524 86 261 15.6 0.0 0.00 0.00 0.00 14 1008.2
20260508043032 86 296 14.8 0.0 0.00 0.00 0.00 15 1008.3
20260508041522 86 280 15.6 0.0 0.00 0.00 0.00 15 1008.1
20260508040030 86 269 14.8 0.0 0.00 0.00 0.00 14 1008.0